Monroe, MI

8:34 PM EDT on June 27, 2017 (GMT -0400)
Custer

Weather History for KTTF - December, 2012

Change the Weather History Date:

Tuesday, December 4, 2012

  Actual Average Record
Temperature  
Mean Temperature 52 °F -  
Max Temperature 64 °F 40 °F 68 °F (1982)
Min Temperature 39 °F 24 °F -4 °F (2002)
Degree Days  
Heating Degree Days 12    
Growing Degree Days 2 (Base 50)    
Moisture  
Dew Point 48 °F    
Average Humidity 81    
Maximum Humidity 94    
Minimum Humidity 72    
Precipitation  
Precipitation 0.00 in - - ()
Sea Level Pressure  
Sea Level Pressure 29.99 in    
Wind  
Wind Speed 12 mph (WSW)    
Max Wind Speed 18 mph    
Max Gust Speed 26 mph    
Visibility 10 miles    
Events Rain    
Averages and records for this station are not official NWS values.
T = Trace of Precipitation, MM = Missing Value Source: NWS Daily Summary

Daily Weather History Graph

Daily Weather History Graph

Search for Another Location

Airport or City:

Trip Planner

Search our weather history database for the weather conditions in past years. The results will help you decide how hot, cold, wet, or windy it might be!

Date:

Astronomy

Dec. 04, 2012 Rise Set
Actual Time 7:45 AM EST 5:02 PM EST
Civil Twilight 7:14 AM EST 5:33 PM EST
Nautical Twilight 6:39 AM EST 6:08 PM EST
Astronomical Twilight 6:05 AM EST 6:42 PM EST
Moon 10:52 PM EST (12/4) 11:35 AM EST (12/4)
Length of Visible Light 10h 19m
Length of Day
9h 17m
Waning Gibbous, 69% of the Moon is Illuminated
Dec 4
Waning Gibbous
Dec 6
Last Quarter
Dec 13
New
Dec 20
First Quarter
Dec 28
Full

Hourly Weather History & Observations

Time (EST) Temp. Windchill Dew Point Humidity Pressure Visibility Wind Dir Wind Speed Gust Speed Precip Events Conditions
12:13 AM 64.4 °F - 55.4 °F 73% 29.94 in 10.0 mi SSW 17.3 mph 24.2 mph N/A   Clear
12:33 AM 64.4 °F - 55.4 °F 73% 29.94 in 10.0 mi SSW 17.3 mph 23.0 mph N/A   Clear
12:53 AM 64.4 °F - 55.4 °F 73% 29.94 in 10.0 mi SSW 17.3 mph 26.5 mph N/A   Clear
1:13 AM 62.6 °F - 55.4 °F 77% 29.94 in 10.0 mi SSW 13.8 mph 23.0 mph N/A   Clear
1:33 AM 62.6 °F - 55.4 °F 77% 29.94 in 10.0 mi SSW 13.8 mph 20.7 mph N/A   Clear
1:53 AM 62.6 °F - 55.4 °F 77% 29.94 in 10.0 mi SSW 12.7 mph 19.6 mph N/A   Scattered Clouds
2:14 AM 62.6 °F - 55.4 °F 77% 29.93 in 10.0 mi SSW 13.8 mph - N/A   Scattered Clouds
2:34 AM 62.6 °F - 55.4 °F 77% 29.93 in 10.0 mi SSW 15.0 mph 25.3 mph N/A   Clear
2:54 AM 62.6 °F - 53.6 °F 72% 29.93 in 10.0 mi SSW 17.3 mph 24.2 mph N/A   Clear
3:14 AM 62.6 °F - 53.6 °F 72% 29.93 in 10.0 mi SSW 13.8 mph 21.9 mph N/A   Clear
3:34 AM 62.6 °F - 53.6 °F 72% 29.93 in 10.0 mi SSW 13.8 mph 19.6 mph N/A   Scattered Clouds
3:54 AM 62.6 °F - 53.6 °F 72% 29.93 in 10.0 mi SSW 15.0 mph 19.6 mph N/A   Scattered Clouds
4:14 AM 62.6 °F - 53.6 °F 72% 29.92 in 10.0 mi SSW 16.1 mph 23.0 mph N/A   Clear
4:34 AM 60.8 °F - 53.6 °F 77% 29.92 in 10.0 mi SSW 13.8 mph 19.6 mph N/A   Clear
4:54 AM 60.8 °F - 53.6 °F 77% 29.92 in 10.0 mi SSW 13.8 mph 19.6 mph N/A   Clear
5:15 AM 60.8 °F - 53.6 °F 77% 29.92 in 10.0 mi SSW 12.7 mph 18.4 mph N/A   Scattered Clouds
5:35 AM 60.8 °F - 53.6 °F 77% 29.92 in 10.0 mi SSW 12.7 mph 20.7 mph N/A   Mostly Cloudy
5:55 AM 60.8 °F - 53.6 °F 77% 29.92 in 10.0 mi SSW 13.8 mph - N/A   Overcast
6:15 AM 60.8 °F - 53.6 °F 77% 29.92 in 10.0 mi SSW 11.5 mph 18.4 mph N/A   Overcast
6:35 AM 62.6 °F - 53.6 °F 72% 29.93 in 10.0 mi SSW 18.4 mph 21.9 mph N/A   Overcast
6:55 AM 62.6 °F - 53.6 °F 72% 29.93 in 10.0 mi SSW 18.4 mph 24.2 mph N/A   Overcast
7:15 AM 60.8 °F - 53.6 °F 77% 29.93 in 10.0 mi SSW 15.0 mph 19.6 mph N/A   Overcast
7:35 AM 60.8 °F - 53.6 °F 77% 29.93 in 10.0 mi SSW 12.7 mph 19.6 mph N/A   Overcast
7:55 AM 60.8 °F - 53.6 °F 77% 29.94 in 10.0 mi SSW 12.7 mph 18.4 mph N/A   Overcast
8:16 AM 60.8 °F - 53.6 °F 77% 29.94 in 10.0 mi SW 11.5 mph 18.4 mph N/A   Overcast
8:36 AM 60.8 °F - 53.6 °F 77% 29.94 in 10.0 mi SW 12.7 mph 19.6 mph N/A Rain Rain
8:56 AM 62.6 °F - 55.4 °F 77% 29.95 in 10.0 mi WSW 13.8 mph 18.4 mph N/A   Overcast
9:11 AM 60.8 °F - 55.4 °F 82% 29.95 in 10.0 mi WSW 13.8 mph 21.9 mph N/A   Overcast
9:31 AM 57.2 °F - 53.6 °F 88% 29.97 in 10.0 mi WNW 12.7 mph 25.3 mph N/A Rain Light Rain
9:51 AM 55.4 °F - 53.6 °F 94% 29.99 in 10.0 mi WNW 10.4 mph - N/A   Overcast
10:11 AM 53.6 °F - 51.8 °F 94% 29.99 in 7.0 mi WNW 11.5 mph 16.1 mph N/A Rain Light Rain
10:51 AM 53.6 °F - 51.8 °F 94% 29.99 in 5.0 mi WNW 6.9 mph - N/A Rain Light Rain
11:11 AM 53.6 °F - 51.8 °F 94% 30.01 in 4.0 mi WNW 10.4 mph - N/A Rain Rain
11:32 AM 51.8 °F - 50.0 °F 94% 30.01 in 5.0 mi West 11.5 mph - N/A Rain Light Rain
11:52 AM 51.8 °F - 50.0 °F 94% 30.00 in 5.0 mi West 9.2 mph - N/A Rain Light Rain
12:12 PM 51.8 °F - 46.4 °F 82% 29.98 in 10.0 mi NW 10.4 mph - N/A Rain Light Rain
12:32 PM 51.8 °F - 44.6 °F 76% 29.97 in 10.0 mi WNW 6.9 mph - N/A   Mostly Cloudy
12:52 PM 51.8 °F - 44.6 °F 76% 29.98 in 10.0 mi WNW 5.8 mph - N/A Rain Light Rain
1:12 PM 51.8 °F - 44.6 °F 76% 29.98 in 10.0 mi West 8.1 mph - N/A Rain Light Rain
1:32 PM 50.0 °F - 44.6 °F 82% 29.98 in 10.0 mi WSW 4.6 mph - N/A Rain Light Rain
1:52 PM 50.0 °F - 42.8 °F 76% 29.98 in 10.0 mi WSW 5.8 mph - N/A Rain Light Rain
2:12 PM 50.0 °F - 44.6 °F 82% 29.97 in 10.0 mi WSW 4.6 mph - N/A   Light Drizzle
2:33 PM 50.0 °F - 44.6 °F 82% 29.98 in 10.0 mi WSW 6.9 mph - N/A   Light Drizzle
2:53 PM 48.2 °F - 44.6 °F 87% 29.99 in 10.0 mi West 9.2 mph - N/A   Overcast
3:13 PM 50.0 °F - 44.6 °F 82% 29.99 in 10.0 mi West 5.8 mph - N/A   Scattered Clouds
3:33 PM 50.0 °F - 44.6 °F 82% 29.99 in 10.0 mi West 8.1 mph - N/A   Scattered Clouds
3:53 PM 50.0 °F - 44.6 °F 82% 30.00 in 10.0 mi WSW 8.1 mph - N/A   Mostly Cloudy
4:13 PM 50.0 °F - 44.6 °F 82% 30.01 in 10.0 mi WSW 9.2 mph - N/A   Overcast
4:33 PM 50.0 °F - 44.6 °F 82% 30.02 in 10.0 mi WSW 8.1 mph - N/A   Mostly Cloudy
4:53 PM 48.2 °F - 44.6 °F 87% 30.02 in 10.0 mi WSW 8.1 mph - N/A   Mostly Cloudy
5:13 PM 48.2 °F - 44.6 °F 87% 30.02 in 10.0 mi WSW 9.2 mph - N/A   Mostly Cloudy
5:33 PM 48.2 °F - 44.6 °F 87% 30.02 in 10.0 mi West 6.9 mph - N/A   Clear
5:53 PM 48.2 °F - 44.6 °F 87% 30.03 in 10.0 mi WSW 6.9 mph - N/A   Scattered Clouds
6:14 PM 46.4 °F 42.9 °F 44.6 °F 93% 30.03 in 10.0 mi WSW 6.9 mph - N/A   Clear
6:34 PM 46.4 °F 42.9 °F 42.8 °F 87% 30.04 in 10.0 mi WSW 6.9 mph - N/A   Clear
6:54 PM 44.6 °F 40.7 °F 42.8 °F 93% 30.05 in 10.0 mi WSW 6.9 mph - N/A   Clear
7:14 PM 46.4 °F 42.4 °F 42.8 °F 87% 30.05 in 10.0 mi WSW 8.1 mph - N/A   Clear
7:34 PM 46.4 °F 42.4 °F 41.0 °F 81% 30.05 in 10.0 mi WSW 8.1 mph - N/A   Clear
7:54 PM 44.6 °F 40.2 °F 39.2 °F 81% 30.06 in 10.0 mi West 8.1 mph - N/A   Clear
8:14 PM 44.6 °F 40.7 °F 39.2 °F 81% 30.07 in 10.0 mi West 6.9 mph - N/A   Clear
8:34 PM 42.8 °F 39.3 °F 37.4 °F 81% 30.06 in 10.0 mi WSW 5.8 mph - N/A   Clear
8:54 PM 42.8 °F 38.6 °F 37.4 °F 81% 30.06 in 10.0 mi WSW 6.9 mph - N/A   Clear
9:15 PM 42.8 °F 38.6 °F 37.4 °F 81% 30.07 in 10.0 mi WSW 6.9 mph - N/A   Clear
9:35 PM 42.8 °F 38.0 °F 37.4 °F 81% 30.07 in 10.0 mi WSW 8.1 mph - N/A   Clear
9:55 PM 42.8 °F 38.0 °F 37.4 °F 81% 30.08 in 10.0 mi WSW 8.1 mph - N/A   Clear
10:15 PM 42.8 °F 39.3 °F 35.6 °F 76% 30.08 in 10.0 mi WSW 5.8 mph - N/A   Clear
10:35 PM 41.0 °F 37.1 °F 35.6 °F 81% 30.09 in 10.0 mi West 5.8 mph - N/A   Clear
10:55 PM 41.0 °F 37.1 °F 35.6 °F 81% 30.09 in 10.0 mi West 5.8 mph - N/A   Clear
11:15 PM 41.0 °F 36.4 °F 35.6 °F 81% 30.09 in 10.0 mi West 6.9 mph - N/A   Clear
11:35 PM 41.0 °F 37.1 °F 35.6 °F 81% 30.10 in 10.0 mi West 5.8 mph - N/A   Clear
11:55 PM 39.2 °F 35.9 °F 35.6 °F 87% 30.11 in 10.0 mi West 4.6 mph - N/A   Clear